Wind_Speed
17 16 16 16 15 15 15 16 17 17 17 18 18 18 18 18 18 19 18 18 18 17 17 18 19 19 19 19 18 17 18 18 18 17 17 17 17 17 17 16 16 16 16 14
17 17 17 17 16 16 17 16 17 18 18 18 18 18 18 17 17 17 17 17 17 16 16 17 18 18 18 17 17 17 18 18 17 17 16 17 17 17 16 16 16 15 15 13
19 19 19 17 15 16 17 17 18 18 18 19 19 18 18 17 16 17 17 16 16 17 17 18 18 17 17 16 16 17 17 17 17 16 16 16 16 17 16 16 17 16 14 14
20 20 20 18 17 16 17 17 18 18 19 19 18 17 17 16 16 16 16 16 16 17 17 17 17 16 16 15 15 15 16 16 16 16 16 16 16 16 16 16 16 15 14 13
23 22 22 19 17 17 17 18 18 19 19 19 19 17 17 16 15 16 16 17 16 16 16 16 16 16 15 15 15 15 15 16 16 16 16 16 16 16 15 14 13 13 14 13
23 23 23 20 18 17 18 19 19 20 20 20 20 18 17 17 16 16 17 17 16 16 16 16 16 15 15 15 15 15 15 16 16 16 16 16 16 17 16 14 12 12 13 13
24 24 24 21 19 18 20 20 20 21 20 20 20 18 17 17 18 18 17 17 17 16 16 16 16 15 15 14 15 15 15 15 15 16 16 16 16 17 15 13 12 12 13 13
25 25 25 23 21 21 21 21 21 21 20 20 20 19 18 18 18 17 17 17 16 16 16 15 15 15 15 15 15 15 15 15 15 16 16 16 16 16 14 12 11 12 12 13
26 26 25 24 23 23 22 23 23 22 21 20 20 20 20 19 19 18 18 17 16 16 15 15 15 15 15 15 15 15 15 15 15 16 16 16 16 15 13 12 11 12 13 13
27 27 26 26 25 25 24 24 24 22 21 21 21 21 21 21 21 20 19 18 17 16 15 15 15 15 15 15 15 15 15 15 14 14 15 15 14 13 12 11 11 12 12 13
28 28 28 28 27 26 26 25 24 24 23 22 22 22 21 21 22 21 20 19 18 16 15 15 14 15 14 14 14 14 14 14 14 14 15 14 13 11 11 11 11 12 12 13
28 28 29 28 28 27 26 26 25 25 25 24 23 23 23 22 22 22 20 19 18 16 16 15 15 15 14 14 14 14 14 14 13 13 13 12 11 11 11 10 11 11 12 12
29 28 28 28 28 27 27 27 27 27 26 25 24 24 24 23 21 21 21 20 19 18 17 16 15 15 15 14 14 14 14 13 13 12 11 10 10 10 10 10 10 11 11 12
28 29 29 28 28 28 28 28 28 28 27 26 25 24 23 22 22 22 22 21 20 18 17 17 16 15 15 14 14 14 14 13 13 11 10 10 10 10 10 10 10 10 11 12
28 28 29 30 29 29 29 29 29 28 27 26 26 25 24 23 22 22 22 21 20 19 18 17 16 16 15 14 14 14 13 13 12 11 10 10 11 11 11 10 10 10 11 11
30 30 28 28 29 30 31 30 30 29 28 26 26 26 25 23 22 22 21 21 20 19 18 18 17 16 15 14 14 14 13 12 11 11 10 10 11 11 11 11 10 11 11 11
30 30 30 28 28 28 29 30 29 28 27 27 26 25 24 23 22 22 21 20 20 19 18 18 17 16 16 15 15 14 13 12 11 11 10 10 11 11 11 12 11 10 11 11
29 29 29 29 29 28 28 27 26 26 26 26 25 24 22 22 21 21 21 20 19 18 18 18 18 17 16 16 15 14 13 12 11 11 11 11 11 11 11 12 11 10 10 10
29 28 28 28 28 28 27 26 25 25 24 24 24 23 23 22 22 21 20 20 19 19 19 18 18 17 17 16 15 15 14 13 12 12 12 12 12 12 11 11 10 9 9 9
29 29 28 27 26 26 26 24 24 25 24 23 23 23 23 22 21 20 20 19 20 20 20 19 18 18 18 17 16 16 15 14 14 14 13 13 13 12 12 11 10 9 9 9
28 28 27 26 26 25 24 24 25 25 24 23 22 22 22 22 21 20 20 20 20 20 20 20 19 19 18 18 17 17 16 16 15 14 14 13 13 12 12 11 10 9 9 9
26 26 26 26 25 25 25 25 25 25 24 23 23 23 22 22 21 21 21 20 20 19 19 19 19 19 18 18 18 17 17 16 15 15 15 14 13 12 12 11 10 10 9 10
27 27 27 27 26 26 25 25 25 25 24 23 22 22 21 21 21 21 21 20 20 20 19 19 19 18 18 17 17 18 18 17 16 16 15 14 13 12 11 11 11 10 10 10
26 26 27 27 27 27 27 27 26 26 25 23 22 21 21 21 21 20 20 21 20 19 19 19 19 18 18 17 17 17 17 17 17 17 16 14 13 12 12 11 11 10 10 11
27 26 26 26 26 26 27 26 25 25 24 23 23 22 22 21 21 20 20 20 20 20 19 19 19 18 18 18 18 17 17 18 18 17 16 15 14 13 12 11 11 11 11 11
27 26 25 26 26 26 26 26 25 24 24 24 24 24 23 23 22 20 19 19 19 19 19 18 19 18 18 18 18 17 17 18 17 17 16 14 14 13 12 12 12 12 11 12
26 26 26 26 25 25 25 25 24 24 23 24 23 23 23 23 22 21 20 20 19 19 19 18 18 18 18 18 18 17 17 17 16 15 14 14 13 13 13 12 12 12 11 11
Wind_Direction
274 278 283 290 292 293 293 296 301 308 307 311 313 317 320 320 325 329 331 331 331 330 331 331 331 331 332 333 335 336 337 337 338 337 336 338 339 338 340 342 341 341 341 341
274 278 282 286 288 290 291 294 296 302 303 306 309 313 315 315 319 326 332 336 336 335 335 335 336 338 340 341 343 344 343 343 342 341 340 341 342 343 345 348 347 345 345 350
275 278 281 282 287 289 290 291 294 297 300 303 305 308 309 312 317 323 327 331 333 334 335 336 338 342 344 345 346 345 346 346 345 344 344 345 346 348 349 351 350 349 349 349
274 275 277 283 286 289 292 294 296 298 301 304 306 308 311 314 316 319 322 325 328 331 333 335 339 342 345 348 348 349 350 351 350 350 350 350 350 350 351 351 352 354 353 353
272 272 276 277 282 287 291 295 296 297 299 301 304 306 308 309 308 311 316 322 325 328 331 334 336 339 343 345 347 350 351 352 352 352 352 352 353 352 350 349 349 355 357 357
270 272 275 278 281 285 288 292 296 296 297 300 303 305 307 306 307 311 315 319 321 323 327 331 335 338 339 343 345 346 347 349 351 352 353 353 354 353 353 353 355 358 358 358
269 271 275 278 281 284 285 290 294 295 297 298 300 301 302 303 304 306 310 313 317 320 321 325 331 334 335 339 341 343 344 347 349 350 350 350 351 353 353 355 357 359 357 357
268 271 274 278 280 281 284 286 290 292 293 294 296 296 297 299 301 302 304 307 311 313 316 320 324 326 328 334 337 339 341 343 344 347 349 350 350 351 354 356 358 357 358 359
266 270 273 275 279 281 280 282 285 287 289 291 290 290 292 292 295 299 300 303 305 307 310 315 318 319 321 327 332 335 336 338 340 343 346 347 349 353 357 358 357 358 358 358
264 266 270 272 276 279 280 282 282 283 284 287 290 288 287 288 291 293 297 298 299 300 303 307 310 312 316 321 326 330 332 334 336 339 343 346 349 352 354 353 354 356 358 358
263 266 268 270 273 276 277 276 277 279 282 285 287 288 286 285 286 289 292 293 293 294 297 303 305 309 312 315 321 325 329 332 334 335 339 343 349 353 353 352 353 355 357 360
262 263 264 267 270 273 274 273 275 279 282 284 285 284 283 284 283 284 287 289 288 288 291 296 300 304 307 309 314 318 323 328 331 334 336 341 348 352 351 349 350 354 357 359
262 262 263 265 267 269 270 271 274 277 279 280 281 281 280 280 280 281 281 283 283 283 284 288 293 297 301 304 307 311 316 321 326 330 335 339 343 346 347 345 346 349 350 352
260 261 263 265 266 267 268 269 271 273 275 277 277 277 276 278 280 280 280 279 280 279 279 283 288 291 294 299 302 305 307 312 318 323 325 332 336 337 338 338 341 345 347 348
257 258 261 264 267 268 268 269 270 272 273 274 273 273 273 275 277 278 277 276 276 274 274 277 282 286 289 291 296 298 300 305 310 314 317 324 329 332 332 332 334 337 340 342
256 256 259 263 265 268 269 269 269 270 271 271 271 271 270 271 273 274 274 272 272 272 269 270 273 278 283 285 289 293 296 299 303 305 308 314 319 323 326 327 327 330 335 338
258 259 259 260 262 264 267 268 267 268 268 268 268 268 267 268 270 271 270 269 268 267 266 266 267 270 276 280 283 288 291 292 295 297 299 304 309 314 319 323 321 322 327 332
258 259 260 262 263 265 267 267 266 266 265 263 265 265 265 266 268 268 266 264 261 261 261 262 263 266 271 274 278 283 285 286 289 291 294 298 303 309 313 318 317 316 321 328
255 257 259 261 263 264 266 265 262 262 263 262 264 264 263 263 264 265 262 258 257 258 259 259 260 262 264 268 272 277 280 282 285 286 288 292 296 301 304 309 309 310 316 321
256 258 260 263 265 264 263 264 263 261 262 263 263 262 261 261 262 261 259 257 256 257 258 257 257 260 263 265 270 273 275 278 280 282 285 288 290 291 295 302 300 299 305 313
255 257 259 260 262 262 262 262 262 261 261 261 261 260 261 262 260 257 256 255 256 256 257 255 257 259 260 264 266 268 271 274 277 279 283 284 284 284 288 295 293 292 302 310
256 259 260 261 260 260 262 260 259 260 260 260 260 261 261 260 258 257 257 256 256 255 253 255 258 259 260 262 262 265 269 271 274 277 281 283 283 281 283 284 281 281 292 303
257 258 260 261 261 260 261 260 259 259 259 259 258 258 258 258 258 256 255 255 255 254 253 255 256 257 260 261 262 264 266 269 272 274 278 281 281 279 278 278 276 276 285 294
255 256 257 258 258 259 259 258 257 256 254 254 253 254 255 256 257 256 256 254 254 252 251 253 254 255 257 258 261 262 263 267 270 271 274 276 276 276 274 273 273 275 283 293
255 257 257 257 257 257 258 258 256 253 251 250 249 249 250 253 256 255 254 253 252 252 252 253 254 255 256 256 259 260 262 265 268 270 273 272 271 272 272 272 274 278 283 290
254 255 257 257 257 257 256 256 254 252 248 246 247 249 250 252 252 251 250 250 251 252 253 254 254 255 256 256 258 259 262 265 268 269 268 266 265 266 267 270 274 278 284 289
255 256 256 256 257 257 255 253 251 250 248 247 247 248 249 249 247 246 246 247 249 251 253 254 254 254 255 256 256 257 260 264 266 266 263 260 260 262 264 266 272 278 283 290
Height
5837 5837 5835 5834 5833 5832 5831 5829 5827 5825 5823 5820 5818 5815 5813 5810 5806 5803 5799 5795 5792 5788 5785 5781 5777 5772 5768 5764 5761 5757 5754 5751 5747 5744 5741 5738 5734 5731 5727 5723 5720 5716 5712 5708
5833 5832 5831 5830 5829 5828 5826 5825 5823 5821 5819 5817 5815 5812 5809 5806 5803 5800 5797 5793 5789 5785 5782 5779 5775 5770 5766 5762 5759 5756 5752 5749 5746 5743 5739 5736 5732 5728 5725 5722 5718 5714 5711 5707
5828 5827 5826 5826 5825 5823 5822 5820 5819 5817 5816 5813 5811 5808 5806 5803 5800 5797 5794 5790 5787 5784 5780 5777 5773 5769 5765 5761 5758 5755 5751 5748 5744 5741 5738 5734 5731 5727 5724 5720 5717 5713 5710 5707
5822 5822 5821 5823 5820 5819 5817 5816 5814 5812 5811 5809 5806 5804 5801 5799 5797 5794 5791 5788 5785 5782 5778 5775 5771 5768 5764 5760 5757 5754 5750 5747 5743 5740 5737 5733 5730 5726 5722 5719 5716 5713 5709 5706
5816 5815 5815 5816 5815 5814 5812 5810 5809 5807 5806 5804 5801 5799 5798 5795 5793 5791 5788 5785 5783 5780 5776 5773 5770 5766 5763 5760 5756 5753 5750 5747 5743 5739 5736 5732 5729 5725 5721 5718 5715 5712 5709 5705
5809 5808 5808 5811 5810 5809 5808 5805 5804 5802 5801 5798 5796 5795 5794 5791 5789 5787 5784 5782 5779 5777 5774 5771 5768 5765 5762 5758 5755 5752 5749 5746 5742 5739 5735 5732 5728 5724 5721 5717 5714 5711 5708 5705
5802 5801 5802 5804 5804 5803 5803 5802 5800 5797 5795 5793 5792 5791 5789 5787 5785 5783 5781 5779 5776 5773 5771 5768 5765 5763 5760 5757 5754 5751 5747 5744 5741 5738 5734 5731 5727 5724 5720 5717 5713 5711 5708 5704
5795 5795 5797 5796 5796 5797 5796 5795 5793 5791 5790 5788 5787 5785 5784 5782 5780 5779 5777 5775 5773 5770 5768 5765 5763 5760 5758 5755 5752 5749 5746 5743 5740 5736 5733 5730 5726 5723 5719 5716 5714 5711 5707 5704
5789 5790 5789 5789 5789 5789 5789 5788 5787 5785 5784 5783 5781 5780 5779 5777 5776 5774 5772 5771 5769 5766 5764 5762 5760 5758 5756 5753 5750 5747 5744 5741 5738 5734 5731 5728 5725 5721 5718 5716 5714 5711 5707 5704
5781 5781 5781 5782 5781 5781 5781 5780 5779 5779 5778 5777 5776 5774 5773 5772 5771 5769 5768 5766 5764 5762 5761 5759 5757 5755 5752 5750 5747 5744 5741 5739 5736 5733 5730 5727 5724 5721 5718 5715 5713 5710 5707 5703
5772 5773 5773 5774 5774 5773 5773 5773 5772 5771 5771 5770 5769 5768 5767 5766 5765 5763 5762 5761 5759 5758 5756 5755 5753 5751 5749 5747 5744 5742 5739 5736 5734 5731 5728 5725 5722 5720 5717 5715 5712 5709 5706 5703
5764 5764 5765 5765 5765 5765 5765 5765 5764 5764 5764 5763 5762 5761 5760 5759 5758 5757 5756 5755 5754 5753 5752 5751 5749 5748 5746 5744 5741 5739 5737 5734 5732 5729 5726 5724 5721 5719 5716 5714 5711 5709 5706 5703
5754 5755 5756 5756 5757 5757 5757 5757 5756 5756 5756 5755 5755 5754 5753 5752 5751 5751 5750 5749 5749 5748 5747 5746 5745 5743 5742 5740 5738 5736 5734 5732 5729 5727 5724 5722 5720 5718 5716 5713 5710 5708 5705 5702
5745 5745 5746 5747 5747 5747 5748 5748 5748 5748 5747 5747 5746 5746 5745 5745 5744 5744 5743 5743 5742 5742 5741 5741 5740 5739 5737 5736 5734 5732 5731 5729 5727 5724 5722 5720 5719 5717 5714 5712 5710 5707 5704 5701
5735 5736 5737 5738 5738 5738 5738 5739 5739 5739 5738 5738 5738 5738 5738 5737 5737 5736 5736 5736 5736 5736 5736 5735 5735 5734 5733 5731 5730 5729 5727 5725 5724 5722 5720 5718 5717 5715 5712 5710 5708 5706 5703 5700
5726 5726 5727 5728 5728 5729 5729 5729 5729 5730 5729 5729 5729 5729 5729 5729 5729 5729 5729 5729 5729 5729 5729 5729 5729 5728 5727 5727 5726 5725 5723 5722 5720 5719 5717 5716 5714 5712 5710 5708 5706 5703 5701 5699
5716 5717 5718 5719 5720 5720 5720 5720 5720 5720 5720 5720 5721 5721 5721 5721 5722 5722 5722 5722 5722 5723 5723 5723 5723 5723 5722 5721 5721 5720 5719 5718 5717 5715 5714 5712 5711 5709 5707 5705 5703 5701 5699 5697
5706 5708 5708 5709 5710 5710 5711 5711 5711 5711 5712 5712 5712 5713 5713 5713 5714 5714 5715 5715 5716 5716 5717 5717 5717 5717 5717 5716 5716 5715 5714 5713 5712 5711 5710 5709 5708 5706 5704 5703 5701 5699 5697 5695
5697 5698 5699 5700 5700 5701 5702 5702 5703 5703 5703 5704 5704 5705 5705 5706 5706 5707 5708 5708 5709 5710 5710 5711 5711 5711 5711 5711 5711 5710 5710 5709 5708 5707 5706 5705 5704 5702 5701 5700 5698 5696 5694 5692
5688 5689 5690 5691 5692 5692 5693 5693 5694 5695 5696 5696 5697 5697 5698 5698 5699 5700 5700 5701 5702 5703 5703 5704 5705 5705 5705 5705 5705 5705 5705 5704 5704 5703 5701 5700 5699 5698 5697 5696 5694 5693 5691 5690
5678 5680 5681 5682 5683 5684 5684 5685 5686 5687 5688 5689 5689 5690 5690 5691 5692 5693 5693 5694 5695 5696 5697 5698 5698 5699 5699 5700 5700 5700 5700 5699 5699 5698 5696 5695 5694 5694 5693 5692 5691 5690 5688 5687
5669 5671 5672 5673 5674 5675 5676 5677 5678 5679 5680 5681 5682 5682 5683 5684 5685 5686 5687 5687 5688 5689 5690 5691 5692 5693 5693 5694 5694 5694 5694 5694 5693 5692 5691 5690 5689 5689 5688 5688 5687 5686 5685 5684
5660 5662 5663 5664 5666 5667 5668 5669 5670 5671 5672 5673 5674 5675 5676 5677 5678 5679 5680 5681 5681 5683 5684 5685 5686 5686 5687 5688 5688 5688 5688 5688 5688 5687 5686 5685 5685 5684 5684 5683 5682 5682 5681 5680
5652 5653 5654 5656 5657 5658 5659 5660 5661 5663 5664 5665 5666 5668 5669 5670 5671 5672 5673 5674 5675 5676 5677 5678 5679 5680 5681 5681 5682 5682 5682 5682 5682 5682 5681 5680 5680 5679 5679 5678 5678 5678 5677 5676
5643 5644 5645 5646 5647 5648 5650 5651 5653 5654 5656 5657 5659 5660 5661 5662 5664 5665 5666 5667 5668 5669 5671 5672 5673 5674 5674 5675 5676 5676 5676 5676 5676 5676 5675 5675 5675 5675 5674 5674 5674 5673 5673 5672
5634 5635 5636 5637 5638 5639 5641 5642 5644 5646 5648 5649 5651 5652 5653 5655 5656 5657 5659 5660 5661 5663 5664 5666 5667 5667 5668 5669 5670 5670 5670 5670 5670 5670 5669 5670 5670 5670 5670 5670 5669 5669 5668 5667
5625 5626 5627 5629 5630 5631 5632 5634 5636 5637 5639 5641 5643 5644 5646 5647 5649 5650 5652 5654 5655 5657 5658 5659 5660 5661 5662 5663 5663 5664 5664 5664 5664 5664 5664 5664 5665 5665 5665 5665 5665 5664 5664 5663